Regional Weather Roundup
Issued by NWS

Home | Current Version | Previous Version | Graphics & Text | Print | Product List | Glossary On
Versions: 1 2 3 4 5 6 7 8 9 10 11 12 13 14 15 16 17 18 19 20 21 22 23 24 25 26 27 28 29 30 31 32 33 34 35 36 37 38 39 40 41 42 43 44 45 46 47 48 49 50
000
ASUS43 KFSD 310610
RWRSD

WEATHER ROUNDUP FOR SOUTH DAKOTA
NATIONAL WEATHER SERVICE SIOUX FALLS SD
1200 AM CST SAT JAN 31 2015

NOTE: "FAIR" INDICATES FEW OR NO CLOUDS BELOW 12,000 FEET WITH NO
SIGNIFICANT WEATHER AND/OR OBSTRUCTIONS TO VISIBILITY.


SDZ001>005-009-010-012>017-310700-
NORTHWEST AND NORTH CENTRAL SOUTH DAKOTA

CITY           SKY/WX    TMP DP  RH WIND       PRES   REMARKS
BUFFALO          N/A     32  24  72 NE6       30.04F WCI  26
FAITH            N/A     29  22  75 CALM      30.12R
MOBRIDGE       CLEAR     26  23  88 N9        30.11F WCI  17
$$

SDZ012>016-024>037-041>051-057-063-072>074-310700-
SOUTHWEST AND SOUTH CENTRAL SOUTH DAKOTA

CITY           SKY/WX    TMP DP  RH WIND       PRES   REMARKS
RAPID CTY ARPT MOCLDY    27  22  81 NW8       30.11S WCI  19
PIERRE         CLEAR     22  19  89 CALM      30.11F
CUSTER         CLOUDY    29  18  63 NE5       30.07F WCI  24
ELLSWORTH AFB  MOCLDY    28  21  75 N5        30.11S WCI  22
PHILIP         MOCLDY    24  21  88 W3        30.11S
PINE RIDGE     CLOUDY    27  22  81 CALM      30.09F
WINNER         FAIR      32  24  72 W3        30.12S
$$

SDZ004>011-016>023-039-040-310700-
NORTHEAST SOUTH DAKOTA

CITY           SKY/WX    TMP DP  RH WIND       PRES   REMARKS
ABERDEEN       CLOUDY    30  27  88 N12       30.16S FOG     WCI  20
WATERTOWN      CLEAR     26  25  96 CALM      30.10F FOG
SISSETON         N/A     27  24  89 N13       30.15R WCI  16
$$

SDZ017-020-022-023-036>040-048>070-310700-
SOUTHEAST SOUTH DAKOTA

CITY           SKY/WX    TMP DP  RH WIND       PRES   REMARKS
SIOUX FALLS    CLEAR     32  26  78 SW5       30.12F WCI  27
HURON          CLEAR     26  23  88 N7        30.12F WCI  18
CHAMBERLAIN    PTCLDY    26  21  83 CALM      30.11F
MITCHELL       PTCLDY    27  25  92 S3        30.12F
YANKTON        CLEAR     37  27  65 SW12      30.13F
$$

ABBREVIATIONS USED IN REMARKS
   TC - TEMPERATURE IN CELSIUS
  WCI - WIND CHILL INDEX
   HX - HEAT INDEX
  VSB - VISIBILITY



USA.gov is the U.S. government's official web portal to all federal, state and local government web resources and services.